GSAT0203 (GALILEO 7) (40544 NORAD) Tracking and Keplerian Element Data

This shows tracking and keplerian element data for the satellite.

Feedback or suggestion? Click here.




ElementValue
Catalog40544
NameGSAT0203 (GALILEO 7)
Epoch Orbit2255
Epoch Day315.66756928
Epoch Year2018
RAAN57.6347
Inclination56.0107
Eccentricity0.0003988
Argument of Perigee228.6272
Mean Anonmoly131.339
Mean Motion1.7047548
Decay Rate-6.8E-07
L11 40544U 15017A 18315.66756928 -.00000068 00000-0 00000+0 0 9992
L22 40544 56.0107 57.6347 0003988 228.6272 131.3390 1.70475480 22557

Live tracking and technical data element details for GSAT0203 (GALILEO 7) (NORAD 40544). GSAT0203 (GALILEO 7) can be tracked NOW for your location showing map with azimuth and elevation plus other details from your city location.

Track the satellite on the map from your city or location and see movement details for azimuth, elevation, latitude, longitude, range, height, and movement on the map or in text.







IsCatalogInMostPopularTable: catalog: 40544, numindb: 116
Update: records affected: 1



GetName: 40544 GSAT0203 (GALILEO 7)

Hit Count: updated at: Wed, 14 Nov 2018 11:08:29 GMT